Home   Weather   Vincennes   Past weeks

Flag for USA Past Weather in Vincennes, Indiana, USA — Yesterday and Last 2 Weeks

Now
78 °F

Sunny.


Feels Like: 78 °F
Forecast: 44 / 75 °F
Wind: 8 mph from Northeast

Location: Lawrenceville-Vincennes International Airport

Current Time: Apr 24, 2017 at 6:50:00 pm

Latest Report: Apr 24, 2017 at 5:53 pm


Visibility: 10 mi

Pressure: 29.75 "Hg

Humidity: 21%

Dew Point: 35 °F

Location of VincennesLocation

Past Weather in Vincennes — Graph

°F

Vincennes Temperature Yesterday

Maximum temperature yesterday: 72 °F (at 4:53 pm)
Minimum temperature yesterday: 43 °F (at 6:53 am)
Average temperature yesterday: 57 °F

High & Low Weather Summary for the Past Weeks

 TemperatureHumidityPressure
High84 °F (Apr 14, 1:53 pm)100% (Apr 12, 4:20 am)30.40 "Hg (Apr 12, 4:20 am)
Low40 °F (Apr 12, 6:38 am)18% (Apr 24, 2:53 pm)29.78 "Hg (Apr 24, 4:53 pm)
Average63 °F65%30.08 "Hg
* Reported Apr 9 4:53 pm — Apr 24 4:53 pm, Vincennes, Weather by CustomWeather, © 2017

Note: Actual official high and low records may vary slightly from our data, if they occured in-between our weather recording intervals... More about our weather records

Advertising

Vincennes Weather History for the Previous 24 Hours

Scroll right to see more
 ConditionsComfort  
Time TempWeatherWind HumidityBarometerVisibility
4:53 pm
Mon, Apr 24
77 °FSunny.8 mph20%29.78 "Hg10 mi
3:53 pm77 °FSunny.12 mph18%29.81 "Hg10 mi
2:53 pm76 °FSunny.10 mph18%29.83 "Hg10 mi
1:53 pm76 °FSunny.10 mph21%29.86 "Hg10 mi
12:53 pm73 °FSunny.16 mph25%29.89 "Hg10 mi
11:53 am70 °FSunny.15 mph25%29.90 "Hg10 mi
10:53 am66 °FSunny.13 mph36%29.94 "Hg10 mi
9:53 am61 °FSunny.12 mph44%29.94 "Hg10 mi
8:53 am55 °FSunny.10 mph53%29.94 "Hg10 mi
7:53 am50 °FSunny.8 mph59%29.93 "Hg10 mi
6:53 am48 °FClear.9 mph61%29.92 "Hg10 mi
5:53 am48 °FClear.10 mph61%29.92 "Hg10 mi
4:53 am50 °FClear.12 mph54%29.92 "Hg10 mi
3:53 am51 °FClear.12 mph50%29.93 "Hg10 mi
2:53 am50 °FClear.9 mph54%29.95 "Hg10 mi
1:53 am52 °FClear.8 mph49%29.96 "Hg10 mi
12:53 am54 °FClear.8 mph45%29.96 "Hg10 mi
11:53 pm
Sun, Apr 23
55 °FClear.8 mph42%29.97 "Hg10 mi
10:53 pm57 °FClear.9 mph41%29.98 "Hg10 mi
9:53 pm59 °FClear.9 mph42%29.97 "Hg10 mi
8:53 pm62 °FClear.8 mph37%29.95 "Hg10 mi
7:53 pm69 °FSunny.14 mph24%29.94 "Hg10 mi
6:53 pm72 °FSunny.14 mph22%29.94 "Hg10 mi
Weather by CustomWeather, © 2017

See weather overviewHow to use our weather pages